Dewpoint
61 61 61 61 61 61 60 60 60 60 60 60 62 62 63 63 59 34 30 44 55 66 66 53 47 45 47 53 52 54 47 39 33 36 34 37 36 35 33 31 27 23 23 24 26
61 61 61 61 61 61 60 59 60 60 60 61 62 62 62 62 40 27 55 64 66 67 48 40 38 44 45 49 46 43 41 33 33 35 32 32 31 34 28 24 23 21 20 20 19
61 61 61 61 61 61 60 59 60 59 59 60 61 61 62 52 37 24 61 63 66 62 40 39 38 39 44 43 36 36 36 35 35 36 33 27 23 25 27 22 20 18 16 17 18
61 61 61 61 61 61 59 59 59 59 59 60 61 62 62 36 24 25 61 66 64 51 36 37 38 44 39 36 34 32 32 33 34 34 31 26 23 21 21 21 18 19 18 17 15
60 61 62 61 61 60 59 58 58 58 59 60 62 62 33 25 23 25 59 48 26 34 36 36 33 39 33 31 30 30 29 30 29 26 25 23 21 19 18 18 17 17 16 15 13
60 61 61 61 61 60 60 59 59 58 59 61 60 58 29 24 25 24 25 24 24 32 32 35 35 35 31 32 31 26 26 26 28 28 23 20 20 19 18 17 14 12 11 11 11
60 61 61 60 60 60 59 59 58 59 59 58 60 29 21 21 24 22 25 26 24 25 30 26 32 40 35 29 27 22 21 23 21 22 21 20 17 15 16 15 11 9 9 11 10
59 59 60 59 59 59 58 56 56 55 57 58 59 30 21 25 24 21 23 28 26 22 28 30 31 29 33 31 25 24 25 25 20 21 20 21 16 15 15 12 12 10 8 8 7
59 59 59 59 58 59 58 59 58 59 60 56 30 25 17 37 17 19 23 23 25 27 31 17 29 24 27 21 20 17 13 16 21 19 19 19 16 16 14 13 11 8 5 2 3
59 58 58 57 58 58 57 59 56 50 44 26 19 21 17 16 19 17 22 25 25 26 29 27 24 18 16 14 14 12 13 13 14 19 17 16 15 15 14 11 9 6 1 1 5
58 58 57 57 58 57 47 37 32 28 22 20 19 18 18 20 17 16 20 23 25 28 24 21 16 14 15 17 15 13 13 11 11 18 17 17 16 16 18 9 8 3 -1 3 6
58 57 56 55 55 55 46 33 37 34 25 25 17 19 21 21 13 14 21 23 23 19 24 20 15 16 14 16 14 16 11 10 15 15 13 16 16 17 17 10 6 -1 2 6 10
57 55 55 53 55 46 37 37 42 39 30 27 20 16 19 20 15 13 18 24 23 21 17 16 15 15 14 15 12 15 10 9 10 14 16 16 16 17 14 9 -1 0 5 8 11
56 54 53 51 44 40 38 40 44 45 29 22 19 16 18 26 19 16 16 24 20 20 22 19 13 13 16 13 12 16 12 10 11 14 14 16 12 15 8 -0 -3 0 6 9 12
54 52 51 52 39 38 41 45 44 44 25 23 19 20 20 17 20 19 19 20 18 17 26 18 14 11 10 8 13 12 12 8 13 12 15 14 4 12 0 -6 -4 2 6 10 13
54 54 51 41 40 44 44 46 44 33 24 23 18 17 18 20 16 23 17 21 25 17 15 18 13 11 9 11 14 14 5 19 21 18 11 2 -1 6 0 -4 -2 3 6 10 13
52 53 46 39 40 46 45 42 32 26 24 20 21 15 18 19 17 17 14 12 12 17 19 13 11 13 9 10 17 9 6 15 10 11 2 1 6 8 -3 -1 2 4 8 11 15
54 51 47 39 42 45 42 35 31 24 23 24 20 17 16 19 19 17 19 14 12 10 17 13 14 10 9 9 4 7 6 8 8 4 4 5 6 10 -3 0 4 6 10 13 17
52 39 40 39 40 41 38 31 31 29 26 22 20 19 19 19 20 19 15 15 15 12 14 7 13 13 9 9 3 3 2 8 7 6 7 5 7 6 -1 1 3 7 10 13 17
39 39 39 36 39 41 37 33 29 29 26 25 21 19 21 20 22 20 19 18 17 16 14 8 11 11 10 13 6 1 0 2 7 8 3 -4 -2 -4 0 2 5 8 10 16 17
42 39 36 36 35 37 33 29 27 25 26 22 20 20 21 22 20 18 16 20 20 18 17 10 9 13 14 7 3 3 1 0 3 3 3 4 -2 -1 0 3 7 8 11 16 16
43 38 38 36 36 34 31 28 32 22 25 21 24 22 21 24 23 20 18 21 25 24 12 15 15 8 6 7 8 5 4 5 16 11 12 12 7 2 1 7 10 10 14 16 15
40 39 38 36 42 35 28 24 23 21 20 20 20 23 22 22 27 24 23 26 26 24 18 21 12 13 10 14 12 8 7 4 9 12 14 6 6 3 5 9 10 11 15 13 16
43 43 36 35 36 28 24 21 19 23 18 15 16 20 21 21 26 25 22 25 27 23 25 23 14 9 15 9 13 11 13 12 10 11 8 5 2 3 9 11 10 14 16 14 16
45 45 39 41 33 28 28 25 18 17 18 21 21 19 24 24 20 22 22 20 21 19 19 17 15 6 7 8 8 7 6 9 14 8 6 3 4 6 10 11 11 17 13 14 15
48 47 43 45 37 36 38 26 22 20 22 16 21 16 19 19 19 20 20 18 16 14 15 14 16 7 7 7 5 3 6 7 6 1 1 5 3 11 11 12 17 16 14 15 16
42 43 45 39 34 39 33 23 22 20 19 18 17 19 17 15 12 12 12 13 15 16 13 15 14 15 10 2 4 5 6 4 4 4 6 6 10 12 13 16 18 14 16 15 17
Lifted_Index
10 10 10 9 9 9 9 10 9 9 9 9 9 9 9 9 9 9 9 8 7 5 4 5 5 5 5 4 4 3 2 3 4 4 4 5 7 8 9 9 10 11 13 15 16
10 10 10 10 9 9 10 10 10 9 9 9 9 9 9 9 9 9 9 8 7 6 5 6 6 5 5 4 4 3 3 4 5 6 6 6 7 8 9 10 10 12 15 16 17
10 10 10 10 10 10 10 10 10 10 10 10 10 10 10 9 9 9 10 9 8 7 6 6 6 6 5 5 5 5 5 6 7 7 8 8 9 10 10 11 12 14 16 17 17
11 11 11 10 10 10 10 10 10 10 11 11 10 10 10 9 9 10 11 10 9 8 7 6 6 6 6 6 6 7 7 8 9 9 9 10 11 11 12 13 15 16 17 17 17
11 11 11 11 11 11 11 10 11 11 11 11 11 10 10 10 10 11 11 11 10 9 7 7 6 6 7 7 7 8 9 9 10 10 11 11 11 12 13 15 16 17 17 17 17
11 11 12 12 11 11 10 11 11 12 12 12 11 11 10 10 11 12 12 11 10 9 8 7 7 7 7 8 8 8 9 10 10 11 11 11 11 12 14 16 16 16 17 17 17
12 12 12 12 11 11 11 11 12 12 12 12 11 11 10 11 12 12 11 11 11 10 9 8 8 7 8 8 8 9 8 9 10 11 11 11 10 12 14 16 16 16 16 16 16
12 12 12 12 12 11 11 12 12 12 12 12 11 11 10 12 12 11 11 11 11 11 10 9 9 9 8 8 8 8 8 8 9 10 11 10 9 11 14 15 16 16 16 16 16
12 13 13 13 13 12 12 12 12 12 12 12 11 10 10 11 12 11 11 10 11 11 11 10 10 9 8 7 7 7 6 6 7 9 10 9 9 11 14 15 15 16 16 15 15
12 12 12 13 13 13 13 12 12 12 12 11 11 10 10 11 11 11 11 11 10 10 10 10 9 8 7 6 6 5 5 5 6 8 9 9 9 11 14 15 16 16 15 14 14
12 12 12 13 13 13 12 11 11 11 11 11 11 10 11 11 11 11 11 10 10 9 9 8 7 7 7 7 6 5 4 4 6 8 9 9 10 12 14 15 15 15 14 13 13
12 12 12 13 13 12 12 11 11 11 11 11 11 11 11 11 11 10 10 10 9 8 8 7 7 7 7 7 6 5 4 4 6 8 9 9 10 11 13 14 14 14 13 12 12
12 12 12 12 12 12 12 12 12 11 10 10 11 11 12 11 10 10 11 10 8 8 7 7 8 8 8 7 6 5 5 5 6 7 9 9 9 10 13 13 13 13 12 12 12
12 12 12 12 11 11 11 12 11 10 8 9 10 12 12 11 11 11 12 10 9 8 8 8 8 8 7 6 5 5 5 5 6 6 7 8 8 9 11 11 11 11 11 11 12
12 12 12 11 11 11 11 11 11 8 6 7 10 11 11 11 10 11 12 11 9 8 8 8 9 8 8 7 7 6 6 6 6 6 7 7 7 8 10 9 9 10 11 12 12
12 12 12 11 11 11 11 11 9 6 5 7 9 10 10 10 10 10 10 10 9 8 8 9 9 10 9 9 9 8 6 5 5 5 6 6 7 7 9 9 9 10 11 12 12
12 12 12 11 11 11 11 9 7 5 6 7 8 9 9 9 9 9 9 9 8 8 8 8 9 10 10 10 9 8 6 4 3 3 4 6 7 8 10 10 10 10 11 12 12
12 12 11 11 11 11 10 7 5 5 7 8 8 8 8 8 8 8 8 8 8 8 7 7 8 10 11 10 9 8 7 5 3 2 4 6 7 9 10 10 9 10 11 12 12
12 11 11 11 11 10 8 6 5 6 7 7 7 7 7 7 8 8 8 8 8 9 8 7 7 10 11 11 10 9 8 7 5 4 4 5 7 9 10 10 9 10 11 12 13
11 11 10 11 11 9 7 6 6 8 8 7 6 6 6 7 7 7 8 8 9 9 10 9 8 9 11 11 11 10 10 8 7 5 3 4 7 9 10 10 10 11 12 12 13
10 10 10 10 10 8 6 6 7 8 9 8 7 6 6 6 7 7 8 9 9 10 10 10 9 9 9 10 10 11 10 9 8 6 4 4 6 9 11 10 10 11 12 12 13
9 9 10 9 8 7 7 7 8 8 8 8 7 7 7 7 7 7 8 9 10 10 10 10 9 7 8 9 11 11 11 10 9 7 6 5 7 10 11 11 11 11 12 12 13
9 9 9 9 7 7 7 7 8 8 8 8 7 7 7 7 7 7 8 9 10 10 10 10 9 7 6 8 10 11 11 11 10 8 6 6 8 11 12 11 11 11 12 12 13
9 9 9 8 7 7 7 7 7 8 8 8 7 7 7 7 7 7 8 9 10 11 12 11 9 7 6 8 9 10 11 11 10 8 7 7 9 12 13 12 11 11 12 13 13
9 9 9 8 8 8 7 7 7 8 8 8 8 7 7 7 7 7 8 9 10 11 11 11 9 7 7 8 9 10 10 11 10 9 8 9 11 13 14 13 12 12 12 12 12
10 10 9 9 8 8 8 7 7 8 8 8 8 7 7 7 7 8 9 9 10 10 10 10 8 7 7 8 9 9 10 11 11 11 10 10 12 14 15 14 12 12 12 12 12
11 11 10 9 9 8 8 8 8 8 8 8 8 7 7 8 8 9 10 10 10 9 9 9 8 7 6 8 8 8 10 11 12 12 11 11 13 15 15 14 13 13 13 13 12